Location: Banska Bystrica
(0.0000°N, 19.1500°E)
Time: 13:27:37
(UTC+02:00)

Daily predictions for brighter satellites

Satellite Brightness Start Highest point End
(mag) Time Altitude Azimuth Time Altitude Azimuth Time Altitude Azimuth
H-10 deb 3.8 18:52:23 10° WSW 18:56:41 79° S 19:27:24 10° E
H-10 deb 3.8 18:52:23 10° WSW 18:56:41 79° S 19:27:25 10° E
Okean O Rocket 1.6 18:59:24 10° SSE 19:03:50 73° E 19:08:16 10° N
Ariane H10-3 3.3 19:01:13 10° NW 19:03:52 35° NNE 19:11:39 10° E
Spelda 2.3 19:01:48 10° W 19:04:25 83° N 19:10:24 10° E
Sakura Rocket 3.0 19:02:07 10° SW 19:05:48 53° SSE 19:10:15 10° ENE
Cosmos 1689 Rocket 3.2 19:04:37 10° NE 19:06:49 21° E 19:09:02 10° SSE
Lacrosse 5 rocket 1.8 19:02:57 10° NNW 19:07:20 54° ENE 19:11:51 10° SE
Okean 3 Rocket 4.5 19:03:45 10° NNE 19:07:29 28° E 19:11:13 10° SE
Cosmos 1503 Rocket 4.2 19:03:44 10° S 19:08:42 47° ESE 19:13:37 10° NNE
CSL-04 DEB 4.4 19:05:44 10° NNE 19:09:42 86° W 19:13:37 10° SSW
YAOGAN 1 4.2 19:08:04 10° ESE 19:10:44 16° ENE 19:13:23 10° NE
CZ-4B R/B 3.0 19:08:15 10° N 19:11:03 36° WNW 19:13:52 10° SSW
H-2A R/B 2.8 19:07:17 10° SE 19:11:34 30° ENE 19:15:48 10° NNE
Cosmos 1939 Rocket 3.7 19:08:20 10° S 19:12:24 57° WSW 19:16:25 10° NNW
NOSS 3-3 (A) 4.3 19:08:09 10° SSW 19:13:31 60° WNW 19:18:54 10° NNE
NOSS 3-3 (C) 4.3 19:08:13 10° SSW 19:13:37 61° WNW 19:19:02 10° NNE
Okean-O 4.3 19:15:08 10° ESE 19:17:34 15° ENE 19:20:04 10° NE
Meteor 2-15 Rocket 4.4 19:12:26 10° S 19:18:28 68° E 19:24:27 10° NNE
Skynet4D Del rocket 3.5 19:13:49 10° SW 19:19:09 73° SSE 19:24:42 10° ENE
DMSP B5D2-2 4.3 19:14:44 10° NNE 19:19:47 48° ESE 19:24:51 10° S
CZ-2C R/B 3.3 19:15:18 10° S 19:20:02 68° WSW 19:24:55 10° NNW
Cosmos 540 Rocket 4.1 19:15:47 10° NNE 19:20:23 35° ENE 19:25:01 10° SE
USA 229 DEB 4.5 19:13:20 10° N 19:20:34 42° ENE 19:27:50 10° SE
USA 229 4.5 19:13:26 10° N 19:20:40 42° ENE 19:27:55 10° SE
Cosmos 1766 Rocket 3.8 19:17:52 10° NNE 19:22:08 47° E 19:26:27 10° SSE
H-2A R/B 2.9 19:19:06 10° S 19:22:53 58° WSW 19:26:46 10° NNW
Feng Yun 1-1 Rocket 4.3 19:22:46 10° SSE 19:28:11 58° ENE 19:33:28 10° N
Meteor 2-3 Rocket 4.0 19:22:50 10° N 19:28:21 72° W 19:33:55 10° S
Cosmos 1553 Rocket 4.0 19:26:18 10° S 19:32:13 53° E 19:38:08 10° NNE
ISS -1.7 19:29:42 10° WSW 19:32:43 32° NW 19:35:44 10° N
CZ-2C R/B 3.1 19:29:10 10° W 19:32:57 31° NW 19:36:34 10° NNE
ARIANE 5 R/B 2.0 19:27:08 10° W 19:33:22 85° N 19:34:47 22° E
Ariane H10 2.0 19:33:07 10° W 19:35:45 45° S 19:36:50 25° SE
Cosmos 921 Rocket 3.8 19:32:43 10° NNE 19:36:22 30° E 19:38:07 22° ESE
Cosmos 1655 Rocket 4.4 19:32:03 10° N 19:38:14 69° W 19:44:29 10° S
NOSS 3-1 (A) 4.4 19:31:18 10° N 19:40:00 59° ENE 19:47:59 13° SE
Cosmos 1354 Rocket 4.1 19:38:22 10° SSW 19:43:36 79° WNW 19:48:48 10° N
Cosmos 1603 3.8 19:39:11 10° N 19:44:37 54° ENE 19:48:40 18° SSE
CZ-2C R/B 4.1 19:39:25 10° N 19:44:38 42° WNW 19:49:54 10° SSW
Cosmos 2278 Rocket 2.5 19:39:59 10° S 19:45:17 41° ESE 19:50:33 10° NE
Cosmos 1437 Rocket 2.8 19:42:42 10° S 19:46:29 76° W 19:50:18 10° N
Cosmos 1417 Rocket 4.5 19:40:55 10° S 19:47:07 62° E 19:53:13 10° NNE
Cosmos 1814 Rocket 4.5 19:42:48 10° NNE 19:47:28 36° ENE 19:49:26 27° ESE
Cosmos 1606 3.3 19:47:03 10° SSW 19:50:44 55° W 19:54:23 10° N
Cosmos 1570 Rocket 4.3 19:47:15 10° N 19:52:11 44° ENE 19:54:20 29° SE
Centaur AC-119 1.7 19:50:56 10° NW 19:53:04 73° NNE 19:53:59 43° ESE
ATLAS 5 CENTAUR R/B 3.8 19:49:13 10° NNW 19:54:06 74° ENE 20:15:17 10° SSE
ERS-2 2.2 19:53:28 10° N 19:57:04 78° WNW 20:00:42 10° SSW
FALCON 9 DEB 3.0 19:54:14 10° NW 19:57:38 89° ENE 19:58:18 55° SE
CSL-04 Rocket 4.3 19:58:55 31° E 19:59:25 32° ENE 20:04:03 10° NNE
Ariane H10 3.2 19:56:44 10° W 19:59:49 64° S 20:01:34 35° ESE
Cosmos 1408 Rocket 3.5 19:56:00 10° N 20:00:25 69° E 20:02:44 27° SSE
Meteosat 1 Rocket2 2.7 20:02:58 10° WSW 20:06:34 73° NNW 20:07:45 42° NE
CZ-4 R/B 2.0 20:04:35 14° S 20:08:07 57° W 20:12:08 10° NNW
Ariane 3 Deb 4.3 19:44:49 10° W 20:09:35 63° NNW 20:12:35 28° ENE
Intercosmos 24 4.2 20:06:34 10° S 20:12:19 81° E 20:16:21 10° N
Cosmos 1943 3.3 20:10:13 10° NNW 20:15:51 73° WSW 20:19:12 25° S
Cosmos 1933 3.2 20:15:50 53° S 20:16:44 85° W 20:20:45 10° N
Cosmos 1862 3.5 20:15:34 10° N 20:19:34 69° W 20:20:17 55° SSW
GPS 2-15 Rocket1 3.8 20:18:24 10° SW 20:22:23 43° S 20:22:23 43° S
Cosmos 1743 Rocket 4.4 20:32:40 10° N 20:35:38 43° NNW 20:35:38 43° NNW
Cosmos 883 Rocket 4.3 20:35:05 44° S 20:37:13 84° E 20:43:31 10° N
Centaur AC-64 3.6 20:34:58 10° WNW 20:38:54 38° WNW 20:38:54 38° WNW
Centaur D AC-28 4.1 20:37:42 10° SW 20:44:02 24° S 20:44:02 24° S
CZ-3B R/B 3.5 20:28:45 10° WSW 20:45:40 67° SSE 20:46:56 61° ESE
ARIANE 5 R/B 3.1 20:33:07 10° W 20:56:16 85° NNW 20:56:16 85° NNW
